Orbital Elements at Epoch 2459200.5 (2020-Dec-17.0) TDB
Reference: JPL 18 (heliocentric ecliptic J2000)
Element | Value | Uncertainty (1-sigma) | Units |
e | .1375727101573481 | 3.7006e-08 | |
a | 3.969258785470271 | 3.7185e-08 | au |
q | 3.423197097037262 | 1.4858e-07 | au |
i | 3.538117381783254 | 4.5992e-06 | deg |
node | 152.4661051690408 | 6.3051e-05 | deg |
peri | 112.7905598336144 | 6.5631e-05 | deg |
M | 59.55332813206397 | 1.663e-05 | deg |
tp | 2458722.678062264842 (2019-Aug-27.17806226) | 0.00013466 | TDB |
period | 2888.434668222049 7.91 | 4.0589e-05 1.111e-07 | d yr |
n | .124634981002217 | 1.7514e-09 | deg/d |
Q | 4.51532047390328 | 4.23e-08 | au |
|
| | Orbit Determination Parameters
Additional Information
|